Location: Cartersville (historical)
(42.9944°N, 93.0869°W)
Time: 06:09:14
(UTC+00:00)

ACS3 Solar Sail - Visible Passes

Search period start: 04 October 2024 00:00
Search period end: 14 October 2024 00:00
Orbit: 963 x 1036 km, 97.4° (Epoch: 03 October)

Date Brightness Start Highest point End Pass type
(mag) Time Alt. Az. Time Alt. Az. Time Alt. Az.
04 Oct 3.6 00:14:39 10° E 00:17:16 13° NE 00:19:51 10° NNE visible
04 Oct 1.8 01:57:55 43° SE 02:00:05 71° ENE 02:06:25 10° N visible
04 Oct 3.9 03:43:06 18° WSW 03:44:33 20° W 03:49:02 10° NW visible
05 Oct 3.0 00:45:19 14° E 00:48:48 22° ENE 00:53:29 10° NNE visible
05 Oct 2.1 02:30:30 50° SSW 02:32:09 68° W 02:38:31 10° NNW visible
06 Oct 2.4 01:17:54 27° ESE 01:20:31 37° ENE 01:26:16 10° N visible
06 Oct 3.0 03:03:05 35° WSW 03:04:24 38° W 03:10:17 10° NNW visible
07 Oct 3.6 00:07:42 10° ENE 00:09:40 12° NE 00:11:37 10° NE visible
07 Oct 1.8 01:50:28 45° SE 01:52:25 65° ENE 01:58:41 10° N visible
07 Oct 3.8 03:35:39 21° WSW 03:36:48 22° W 03:41:32 10° NW visible
08 Oct 3.1 00:37:52 14° E 00:41:11 20° ENE 00:45:36 10° NNE visible
08 Oct 2.0 02:23:03 56° SSW 02:24:27 74° W 02:30:49 10° NNW visible
08 Oct 4.5 04:08:14 10° W 04:09:23 11° W 04:11:01 10° WNW visible
09 Oct 2.5 01:10:27 26° ESE 01:12:52 34° ENE 01:18:27 10° N visible
09 Oct 2.8 02:55:38 39° WSW 02:56:40 42° W 03:02:38 10° NNW visible
10 Oct 1.9 01:43:01 45° SE 01:44:44 59° ENE 01:50:55 10° N visible
10 Oct 3.7 03:28:12 23° WSW 03:29:02 24° W 03:33:59 10° NW visible
11 Oct 3.2 00:30:25 13° E 00:33:32 19° ENE 00:37:40 10° NNE visible
11 Oct 1.8 02:15:36 62° S 02:16:44 81° WSW 02:23:06 10° NNW visible
11 Oct 4.4 04:00:46 12° W 04:01:35 12° W 04:04:02 10° WNW visible
12 Oct 2.6 01:02:59 25° E 01:05:12 31° ENE 01:10:38 10° N visible
12 Oct 2.7 02:48:10 44° WSW 02:48:55 46° W 02:54:58 10° NNW visible
13 Oct 1.9 01:35:33 45° ESE 01:37:02 54° ENE 01:43:09 10° N visible
13 Oct 3.6 03:20:45 25° W 03:21:16 26° W 03:26:24 10° NW visible
